Location: Bu�n Treun
(12.1333°N, 108.3167°E)
Time: 12:30:48
(UTC+00:00)

Meteor 1-21 Rocket - Pass Details

Date: 13 July 2020
Orbit: 833 x 907 km, 81.2° (Epoch: 06 August)

Event Time Altitude Azimuth Distance (km) Brightness Sun altitude
Rises 11:58:58 0° 183° (S) 3,495 7.2 -10.5°
Reaches altitude 10° 12:01:24 10° 182° (S) 2,564 6.5 -11.0°
Maximum altitude 12:07:16 84° 96° (E) 912 4.3 -12.3°
Drops below altitude 10° 12:13:11 10° 7° (N) 2,584 7.0 -13.6°
Sets 12:15:38 0° 7° (N) 3,524 7.7 -14.1°
